SL-14 R/B (18153 NORAD) Tracking and Keplerian Element Data

This shows tracking and keplerian element data for the satellite.

Feedback or suggestion? Click here.




ElementValue
Catalog18153
NameSL-14 R/B
Epoch Orbit84538
Epoch Day15.89817077
Epoch Year2022
RAAN332.9355
Inclination82.5015
Eccentricity0.002083
Argument of Perigee333.2271
Mean Anonmoly26.7866
Mean Motion14.83374496
Decay Rate2.25E-06
L11 18153U 87055B 22015.89817077 .00000225 00000+0 24514-4 0 9998
L22 18153 82.5015 332.9355 0020830 333.2271 26.7866 14.83374496845387

Live tracking and technical data element details for SL-14 R/B (NORAD 18153). SL-14 R/B can be tracked NOW for your location showing map with azimuth and elevation plus other details from your city location.

Track the satellite on the map from your city or location and see movement details for azimuth, elevation, latitude, longitude, range, height, and movement on the map or in text.







IsCatalogInMostPopularTable: catalog: 18153, numindb: 286
Update: records affected: 1



GetName: 18153 SL-14 R/B

Hit Count: updated at: Mon, 17 Jan 2022 00:44:50 GMT